Regional Weather Roundup
Issued by NWS

Home | Current Version | Previous Version | Graphics & Text | Print | Product List | Glossary On
Versions: 1 2 3 4 5 6 7 8 9 10 11 12 13 14 15 16 17 18 19 20 21 22 23 24 25 26 27 28 29 30 31 32 33 34 35 36 37 38 39 40 41 42 43 44 45 46 47 48 49 50
000
ASUS43 KDTX 291501
RWRMI
MICHIGAN HOURLY REGIONAL WEATHER ROUNDUP
NATIONAL WEATHER SERVICE DETROIT/PONTIAC MI
1100 AM EDT SUN MAY 29 2016

NOTE: "FAIR" INDICATES FEW OR NO CLOUDS BELOW 12,000 FEET WITH NO
SIGNIFICANT WEATHER AND/OR OBSTRUCTION TO VISIBILITY.

MIZ047>049-052>055-059>063-066>070-074>076-081>083-291600-
SOUTHEAST LOWER MICHIGAN

CITY           SKY/WX    TMP DP  RH WIND       PRES   REMARKS
ADRIAN         MOSUNNY   78  65  63 SW9       30.06F
ALMA           SUNNY     76  63  65 SW8G18    29.99F
ANN ARBOR      CLOUDY    77  66  68 SW6       30.04F
BAD AXE        MOSUNNY   77  67  70 SW12G17   30.00F
CARO           MOSUNNY   78  64  61 SW9G17    29.99F
DETROIT CITY   CLOUDY    76  65  68 SW12      30.04F
DETROIT        CLOUDY    76  66  71 SW12      30.06S
FLINT          PTSUNNY   80  62  54 S12       30.02F
GROSSE ILE     CLOUDY    75  68  78 S5        30.04S
HILLSDALE      SUNNY     77  57  49 W7        30.06S
HOWELL         MOSUNNY   78  64  63 S7        30.03F

CITY           SKY/WX    TMP DP  RH WIND       PRES   REMARKS
JACKSON        SUNNY     78  62  57 SW12      30.04S
LAMBERTVILLE   CLOUDY    77  67  70 SW6       30.07S
LANSING        SUNNY     77  62  59 SW12      30.02S
LAPEER         FAIR      78  61  55 SW10      30.02F
MASON          SUNNY     78  61  56 SW9       30.03S
MONROE         CLOUDY    77  68  74 SW9       30.05S
PONTIAC        PTSUNNY   75  64  68 SW10      30.03F
PORT HOPE        N/A     78  68  71 SW10      29.97F
PORT HURON     CLOUDY    75  68  78 S12       30.03S
TRI CITIES     MOSUNNY   78  64  61 SW14      29.99F
MIDLAND        FAIR      78  64  60 SW12      29.97F
TROY           CLOUDY    76  66  71 SW8G16    30.06S
SAGINAW HB     MOSUNNY   77  64  65 S14       29.99S
$$
MIZ043>046-050>051-056>058-064>065-071>073-077>080-291600-
SOUTHWEST LOWER MICHIGAN

CITY           SKY/WX    TMP DP  RH WIND       PRES   REMARKS
BATTLE CREEK   MOSUNNY   76  63  64 SW13      30.04S
BENTON HARBOR  SUNNY     77  60  55 SW14G20   30.01S
BIG RAPIDS     MOSUNNY   74  63  69 W13       29.97F
COLDWATER      MOSUNNY   77  63  60 SW9       30.04F
FREMONT        FAIR      74  62  66 SW15      29.98S
HOLLAND        SUNNY     75  62  64 SW16      30.01S
GRAND RAPIDS   MOSUNNY   78  61  55 SW15      30.00F
IONIA          FAIR      77  60  55 SW12      30.00F
KALAMAZOO      MOSUNNY   78  62  57 W12G21    30.03F
LUDINGTON      SUNNY     72  61  67 S17G25    29.94F
MARSHALL       MOSUNNY   77  63  62 S12G17    30.03F
MOUNT PLEASANT SUNNY     76  64  65 SW12G17   29.97F
MUSKEGON       MOSUNNY   72  60  66 S15G23    29.99S
SOUTH HAVEN    SUNNY     76  60  56 SW13G18   30.02R
$$
MIZ016>042-291600-
NORTHERN LOWER MICHIGAN

CITY           SKY/WX    TMP DP  RH WIND       PRES   REMARKS
ALPENA         SUNNY     80  62  54 S13       29.93F
BEAVER ISLAND  SUNNY     71  62  73 S12G20    29.89F
BELLAIRE       MOSUNNY   76  60  57 S7        29.91F
CADILLAC       MOSUNNY   73  59  62 SW14      29.95F
CHARLEVOIX     SUNNY     74  61  65 SW13      29.93F
FRANKFORT      SUNNY     71  63  74 S13G18    29.92S
GAYLORD        MOSUNNY   76  61  59 S17       29.94F
GRAYLING       MOSUNNY   76  64  65 S12G18    29.96F
HARBOR SPRINGS MOSUNNY   73  61  68 SW8       29.91S
HOUGHTON LAKE  MOSUNNY   75  63  66 S10       29.97F
MANISTEE       MOSUNNY   73  57  56 SW14G20   29.93F
OSCODA         MOSUNNY   79  65  62 SW10G17   29.95F
PELLSTON       MOSUNNY   76  60  57 SW14G22   29.90F
ROGERS CITY    SUNNY     78  61  55 SW10      29.92F
TRAVERSE CITY  MOSUNNY   76  61  59 S9G18     29.89F
$$
MIZ007>008-015-291600-
EASTERN UPPER MICHIGAN

CITY           SKY/WX    TMP DP  RH WIND       PRES   REMARKS
KINROSS          N/A     73  64  73 S14       29.89F
MACKINAC ISLAN PTSUNNY   71  60  68 W5        29.90S
NEWBERRY       CLOUDY    65  62  89 S13G22    29.88S
S. S. MARIE    MOSUNNY   74  63  68 SW12G20   29.87F
MUNISING         N/A     71  61  70 S14G23    29.81F
$$
MIZ004>006-011>014-085-291600-
CENTRAL UPPER MICHIGAN

CITY           SKY/WX    TMP DP  RH WIND       PRES   REMARKS
MANISTIQUE     FOG       54  53  97 S7        29.88S VSB 1/2
ESCANABA         N/A     66  59  77 S7        29.85S
MENOMINEE      PTSUNNY   73  63  68 S14       29.85S
SAWYER-GWINN   PTSUNNY   70  61  73 S13       29.83F
$$
MIZ001>003-009>011-084-291600-
WESTERN UPPER MICHIGAN

CITY           SKY/WX    TMP DP  RH WIND       PRES   REMARKS
IRON MOUNTAIN  CLOUDY    72  62  71 S10G17    29.81F
HOUGHTON       CLOUDY    59  57  93 W10       29.78F
COPPER HARBOR    N/A     49  48  97 CALM      29.77S
IRONWOOD       CLOUDY    61  61 100 W9        29.80S
$$

ABBREVIATIONS USED IN REMARKS
   TC - TEMPERATURE IN CELSIUS
  WCI - WIND CHILL INDEX
   HX - HEAT INDEX
  VSB - VISIBILITY




USA.gov is the U.S. government's official web portal to all federal, state and local government web resources and services.